Regional Weather Roundup
Issued by NWS Upton, NY

Current Version | Previous Version | Text Only | Print | Product List | Glossary On
Versions: 1 2 3 4 5 6 7 8 9 10 11 12 13 14 15 16 17 18 19 20 21 22 23 24 25 26 27 28 29 30 31 32 33 34 35 36 37 38 39 40 41 42 43 44 45 46 47 48 49 50
406
ASUS41 KOKX 232205
RWROKX

Regional Weather Roundup
National Weather Service New York NY
600 PM EDT WED MAY 23 2018

Note: "FAIR" indicates few or no clouds below 12,000 feet with no
significant weather and/or obstructions to visibility.

NYZ071-072-176-178-NJZ106-104-232300-
New York City Metro Area

CITY           SKY/WX    TMP DP  RH WIND       PRES   REMARKS
Central Park   FAIR      80  52  37 VRB5      29.96R
Bronx Bot Gard   N/A     81  52  36 N5        29.93F
Bronx Lehman C   N/A     81  50  34 NW5         N/A
LaGuardia Arpt FAIR      80  52  37 NW8       29.92S
Queens College   N/A     81  50  34 NW7         N/A
Kennedy Intl   FAIR      81  52  36 NW10      29.93S
Breezy Point     N/A     75 N/A N/A W6          N/A
Brooklyn Coll    N/A     81  52  36 NW8         N/A
Staten Island    N/A     81  52  36 NW6         N/A
Newark/Liberty FAIR      82  51  34 NW10G20   29.93S
Teterboro      FAIR      82  54  37 NW7       29.91S
$$

NYZ177-179-078>081-232300-
Long Island New York

CITY           SKY/WX    TMP DP  RH WIND       PRES   REMARKS
Jones Beach      N/A     77 N/A N/A N12         N/A
Wantagh          N/A     81  50  34 NW9         N/A
Hempstead        N/A     81  54  39 W3        29.95S
Matinecock Pt    N/A     77 N/A N/A W3          N/A
Farmingdale    FAIR      80  50  34 NW10      29.92S
MacArthur/ISP  PTSUNNY   80  53  39 NW9       29.91S
Stony Brook      N/A     77  54  44 NW5         N/A
Shirley        FAIR      80  56  43 W8        29.91S
Mt Sinai Harb    N/A     79 N/A N/A W5          N/A
Westhampton    FAIR      81  52  36 NW9       29.92S
East Hampton   FAIR      76  59  55 SW7       29.89S
Southold         N/A     77  57  50 W3          N/A
Montauk          N/A     72  60  66 S5        29.90S
$$

NYZ052-065-067-232300-
Hudson Valley

CITY           SKY/WX    TMP DP  RH WIND       PRES   REMARKS
White Plains   FAIR      79  51  37 NW8       29.93S
Larchmont Harb   N/A     79 N/A N/A NW7         N/A
Croton On Huds   N/A     79 N/A N/A MISG        N/A
Somers           N/A     79  52  38 NW5         N/A
Brewster         N/A     77  52  41 NW7         N/A
Newburgh       MOSUNNY   81  50  34 NW8G17    29.94S
Montgomery     FAIR      81  49  32 NW12G17   29.93R
Otisville        N/A     77  48  36 NW7         N/A
Warwick          N/A     79  52  38 NW9         N/A
Suffern          N/A     79  50  36 NW7         N/A
Poughkeepsie   FAIR      80  47  31 NW9       29.91S
Albany         PTSUNNY   75  51  43 W22       29.92R
$$

NJZ001-105-106-008-010-013-015-019>022-104-232300-
New Jersey

CITY           SKY/WX    TMP DP  RH WIND       PRES   REMARKS
Newark/Liberty FAIR      82  51  34 NW10G20   29.93S
Teterboro      FAIR      82  54  37 NW7       29.91S
Caldwell       FAIR      81  51  35 NW9       29.94S
Somerville     FAIR      81  52  36 NW8       29.94S
Linden         FAIR      81  52  36 N9        29.94S
Perth Amboy      N/A     77 N/A N/A NW9         N/A
Sussex         FAIR      79  51  37 NW7       29.96R
Andover          N/A     79  51  37 VRB7      29.98R
Trenton        FAIR      79  54  41 NW6       29.96S
Millville      FAIR      80  58  46 NW10      29.96S
Atlantic City  FAIR      82  58  43 NW15      29.95R
Wrightstown    FAIR      77  56  46 N10       29.94
Toms River     FAIR      79  58  48 N9        29.97R
Belmar         FAIR      79  55  43 NW9       29.97R
$$

PAZ047>061-062-071-232300-
Eastern Pennsylvania

CITY           SKY/WX    TMP DP  RH WIND       PRES   REMARKS
Philadelphia   FAIR      79  54  41 NW14      29.98R
Allentown      FAIR      79  53  40 NW9       29.99S
Scranton       FAIR      77  50  38 NW10      30.01S
$$

CTZ002-004>006-009-010-012-RIZ004-006-007-MAZ004-011-015-232300-
Southern New England

 In CT

CITY           SKY/WX    TMP DP  RH WIND       PRES   REMARKS
Bradley Intl   FAIR      83  49  30 NW10      29.88S
Hartford       FAIR      82  49  31 NW13      29.87S
Danbury        FAIR      79  51  37 W10       29.94R
Wtrbury/Oxford FAIR      78  49  35 NW9       29.94R
Norwalk Harbor   N/A     77 N/A N/A W12         N/A
Bridgeport     FAIR      82  47  29 N14       29.90R
Meriden        FAIR      81  47  30 N13G21    29.89S
New Haven      FAIR      81  50  33 NW9       29.89S
Chester        FAIR      79  57  47 SW7       29.90S
Groton         FAIR      73  58  59 W13       29.87S
Willimantic    FAIR      83  48  29 NW9       29.87S

 In RI

CITY           SKY/WX    TMP DP  RH WIND       PRES   REMARKS
Providence     FAIR      77  60  55 SE10      29.86S
Block Island   FAIR      66  58  75 SW12      29.90S
Westerly       FAIR      70  58  65 SW10      29.89S

In MA

CITY           SKY/WX    TMP DP  RH WIND       PRES   REMARKS
Boston         FAIR      75  55  49 VRB5      29.82S
Worcester      FAIR      78  46  32 W18       29.88F
Westfield      FAIR      82  48  30 W15       29.87F
Provincetown   FAIR      69  56  62 S12       29.85F
Nantucket      FAIR      63  59  87 SW9       29.89R
$$

ANZ330-335-338-340-345-350-353-355-232300-
Coastal Marine Observations


STATION/POSITION TIME  SKY/WX   TEMP    WIND        PRES    VSBY  WAVE
                                AIR SEA DIR/SP/G                  HT/PER
                 (UTC)          (F)     (DEG/KT/KT) (MB)    (MI)  (FT/S)
NY Harb Entrance 2150            69 55  280/  8/ 10 1013.6          2/ 8
20 S Fire Island 2150            62 58  240/  6/  8 1013.4          2/ 8
23 SSW Montauk P 2150            59 56  240/ 10/ 10 1012.9          2/ 8
15 E Barnegat Li 2130               66                N/A           3/ 8
Hudson Canyon    2150            58 55  280/  4/  6 1013.2          3/ 6
Kings Point      2130            78 59   50/  5/  6 1014.3
Execution Rocks  NOT AVBL
Western LI Sound NOT AVBL
Central LI Sound 2145            63     250/  8/ 10   N/A           1
Robbins Reef     2148            79     310/  9/ 14 1014.1
$$


>>>>>>>>>>>>>>>>>>>>>>>>>>>> KEY <<<<<<<<<<<<<<<<<<<<<<<<<<<
>                                                          <
>     SKY/WX - Sky Condition/Present Weather               <
>     TMP    - Temperature in Fahrenheit                   <
>     DP     - Dew Point in Fahrenheit                     <
>     RH     - Relative Humidity in Percent                <
>     WIND   - Direction (from) and Speed in MPH           <
>     PRES   - Mean Sea Level Pressure (inches of Hg)      <
>     WCI    - Wind Chill Index                            <
>     VSB    - Visibility in Miles                         <
>     HX     - Heat Index                                  <
>     TC     - Temperature in Celsius                      <
>     VRB    - Varibale Wind Direction                     <
>                                                          <
>>>>>>>>>>>>>>>>>>>>>>>>>>>> KEY <<<<<<<<<<<<<<<<<<<<<<<<<<<




USA.gov is the U.S. government's official web portal to all federal, state and local government web resources and services.